Starlink 5602

operational
NORAD ID: 55743 Int'l Des: 2023-028 Owner: SPXS Country: US Constellation: starlink
LEOCIRCULAR

Über Starlink 5602

Beschreibung wird geladen...

Live-Position

3D-Globus wird geladen...

Nächste Überflüge

Höhenverlauf

Altitude vs Time

uPlot chart will show altitude changes over time

Zweizeiliger Elementsatz

1 55743U 23028C 25259.56375119 -.00001096 00000-0 -84083-4 0 9994
2 55743 69.9997 323.6586 0003485 269.6737 90.4023 14.98336639139955
Epoch: 16. Sept. 2025 • Age: 38 hours

Aktueller Status

Höhe 580.5 km
Geschwindigkeit 7.57 km/s
Subsatellitenpunkt -27.43°S, 103.54°E
Startdatum 3. März 2023
Alter 2.5 years
Typ internet

Technische Details

Klassifizierung Payload
Masse 305.00 kg
Trockenmasse 290.00 kg
Gesamtmasse 305.00 kg
Länge 0.20 m
Durchmesser 2.80 m
Spannweite 9.00 m
Form Box + pan
Hersteller SPXS
Bus-Typ Starlink
Phasenstatus In Orbit
Besitzer/Staat SPXS/US

Große Konstellationen

Loading constellations...